OE5RLP-14 Weather Reports


time (UTC)temp
C
wind
direction
speed
KPH
gust
KPH
rain 1hr
cm
rain 24hr
cm
rain mn
cm
humidity
%
barometer
mb
20260507182429 12 244 1.6 3.2 0.00 0.08 0.00 70 1016.2
20260507181429 12 263 1.6 4.8 0.00 0.08 0.00 70 1016.1
20260507180444 13 0.0 0.0 0.00 0.08 0.00 69 1015.8
20260507175503 13 0.0 0.0 0.00 0.08 0.00 67 1016.0
20260507174439 14 256 1.6 3.2 0.00 0.08 0.00 66 1015.7
20260507173436 14 289 3.2 6.4 0.00 0.08 0.00 65 1015.5
20260507172433 13 276 3.2 4.8 0.00 0.08 0.00 67 1015.5
20260507171431 13 273 4.8 11.3 0.00 0.08 0.00 67 1015.5
20260507170429 13 0.0 0.0 0.00 0.08 0.00 66 1015.5
20260507165429 13 218 3.2 6.4 0.00 0.08 0.00 67 1015.4
20260507164429 13 227 3.2 6.4 0.00 0.08 0.00 67 1015.5
20260507163429 13 295 4.8 4.8 0.00 0.08 0.00 66 1015.6
20260507162429 14 285 6.4 9.7 0.00 0.08 0.00 66 1015.7
20260507161444 14 290 6.4 6.4 0.00 0.08 0.00 65 1015.5
20260507160459 14 293 4.8 9.7 0.00 0.08 0.00 67 1015.6
20260507155438 14 293 9.7 11.3 0.00 0.08 0.00 67 1015.4
20260507154435 14 289 12.9 17.7 0.00 0.08 0.00 65 1015.6
20260507153433 15 0.0 0.0 0.00 0.08 0.00 67 1015.4
20260507152430 14 0.0 0.0 0.00 0.08 0.00 65 1015.4
20260507151429 13 236 3.2 4.8 0.00 0.08 0.00 65 1015.3
20260507150429 13 253 1.6 3.2 0.00 0.08 0.00 64 1015.4
20260507145428 13 270 1.6 3.2 0.00 0.08 0.00 64 1015.5
20260507144429 13 296 6.4 6.4 0.00 0.08 0.00 62 1015.2
20260507143428 13 274 3.2 6.4 0.00 0.08 0.00 62 1015.0
20260507142505 14 295 4.8 9.7 0.00 0.08 0.00 61 1015.1
20260507141440 14 300 11.3 20.9 0.00 0.08 0.00 59 1015.0
20260507140437 14 270 6.4 6.4 0.00 0.08 0.00 60 1015.1
20260507135435 14 280 8.0 11.3 0.00 0.08 0.00 61 1015.1
20260507134432 15 291 8.0 12.9 0.00 0.08 0.00 63 1015.1
20260507133431 15 296 11.3 22.5 0.00 0.08 0.00 60 1015.1
20260507132429 15 283 12.9 20.9 0.00 0.08 0.00 61 1015.1
20260507131435 15 288 9.7 12.9 0.00 0.08 0.00 60 1015.0
20260507130428 15 291 8.0 14.5 0.00 0.08 0.00 59 1015.0
20260507125428 16 300 9.7 12.9 0.00 0.08 0.00 57 1015.0
20260507124445 16 298 6.4 9.7 0.00 0.08 0.00 61 1014.8
20260507123504 16 286 14.5 17.7 0.00 0.08 0.00 61 1014.8
20260507122440 15 267 9.7 16.1 0.00 0.08 0.00 61 1014.8
20260507121437 15 292 9.7 12.9 0.00 0.08 0.00 60 1014.9
20260507120434 16 292 12.9 17.7 0.00 0.08 0.00 60 1014.9
20260507115433 16 307 9.7 20.9 0.00 0.08 0.00 61 1014.8
20260507114428 15 286 12.9 17.7 0.00 0.08 0.00 61 1014.7
20260507113428 15 304 9.7 12.9 0.00 0.08 0.00 61 1014.9
20260507112429 15 329 12.9 20.9 0.00 0.08 0.00 59 1015.0
20260507111428 15 295 9.7 22.5 0.00 0.08 0.00 60 1015.0
20260507110444 15 298 9.7 12.9 0.00 0.08 0.00 61 1014.9
20260507105444 15 305 8.0 11.3 0.00 0.08 0.00 61 1015.1
20260507104443 15 278 8.0 9.7 0.00 0.08 0.00 61 1015.1
20260507103439 14 294 11.3 14.5 0.00 0.08 0.00 60 1015.2
20260507102457 15 289 9.7 17.7 0.00 0.08 0.00 59 1015.4
20260507101435 15 330 9.7 16.1 0.00 0.08 0.00 60 1015.3
20260507100430 15 290 14.5 20.9 0.00 0.08 0.00 61 1015.0
20260507095428 15 283 14.5 24.1 0.00 0.08 0.00 60 1015.2
20260507094425 15 291 11.3 16.1 0.00 0.08 0.00 61 1015.1
20260507093444 15 321 8.0 11.3 0.00 0.08 0.00 64 1015.1
20260507092420 15 312 16.1 27.4 0.00 0.08 0.00 62 1015.2
20260507091437 15 286 11.3 17.7 0.00 0.08 0.00 63 1015.2
20260507090444 14 285 11.3 17.7 0.00 0.08 0.00 61 1015.2
20260507085442 14 294 14.5 22.5 0.00 0.08 0.00 62 1015.2
20260507084500 13 290 22.5 30.6 0.00 0.08 0.00 62 1015.0
20260507083456 13 260 16.1 20.9 0.00 0.08 0.00 64 1015.0
20260507082453 13 266 17.7 27.4 0.00 0.08 0.00 63 1014.8
20260507081452 13 291 11.3 22.5 0.00 0.08 0.00 66 1014.8
20260507080427 13 296 14.5 25.7 0.00 0.08 0.00 66 1014.6
20260507075425 13 314 12.9 20.9 0.00 0.08 0.00 66 1014.9
20260507074422 12 281 9.7 11.3 0.00 0.08 0.00 68 1014.7
20260507073419 12 295 16.1 29.0 0.00 0.08 0.00 67 1014.7
20260507072418 12 291 9.7 16.1 0.00 0.08 0.00 67 1014.7
20260507071444 12 293 9.7 12.9 0.00 0.08 0.00 68 1014.6
20260507070442 13 300 16.1 24.1 0.00 0.08 0.00 67 1014.7
20260507065438 12 300 6.4 9.7 0.00 0.08 0.00 67 1014.8
20260507064435 12 284 14.5 22.5 0.00 0.08 0.00 67 1014.7
20260507063432 13 283 9.7 16.1 0.00 0.08 0.00 66 1014.9
20260507062429 12 286 14.5 17.7 0.00 0.08 0.00 66 1014.8
20260507061428 12 270 6.4 12.9 0.00 0.08 0.00 67 1014.5
20260507060424 13 280 12.9 17.7 0.00 0.08 0.00 68 1014.5
20260507055421 12 278 4.8 9.7 0.00 0.08 0.00 69 1014.5
20260507054420 12 256 6.4 11.3 0.00 0.08 0.00 68 1014.2
20260507053417 12 270 6.4 11.3 0.00 0.08 0.00 68 1014.2
20260507052443 12 291 4.8 4.8 0.00 0.08 0.00 69 1014.2
20260507051502 12 246 3.2 4.8 0.00 0.08 0.00 67 1013.9
20260507050558 12 229 1.6 3.2 0.00 0.08 0.00 70 1013.9
20260507045434 11 194 6.4 11.3 0.00 0.08 0.00 72 1013.7
20260507044431 11 215 3.2 4.8 0.00 0.08 0.00 73 1013.7
20260507043429 11 265 3.2 4.8 0.00 0.08 0.00 73 1013.6
20260507042426 10 240 3.2 3.2 0.00 0.08 0.00 75 1013.6
20260507041424 10 220 3.2 6.4 0.00 0.08 0.00 76 1013.5
20260507040420 10 192 3.2 3.2 0.00 0.08 0.00 76 1013.4
20260507035430 10 267 4.8 6.4 0.00 0.08 0.00 76 1013.1
20260507034446 10 201 3.2 3.2 0.00 0.08 0.00 77 1013.1
20260507033442 10 229 1.6 3.2 0.00 0.08 0.00 77 1012.9
20260507032439 10 283 3.2 4.8 0.00 0.08 0.00 76 1012.8
20260507031458 11 269 1.6 4.8 0.00 0.08 0.00 76 1013.0
20260507030435 11 269 8.0 14.5 0.00 0.08 0.00 75 1013.0
20260507025431 11 293 3.2 6.4 0.00 0.08 0.00 76 1012.8
20260507024433 11 256 8.0 11.3 0.00 0.08 0.00 77 1012.8
20260507023429 11 170 1.6 3.2 0.00 0.08 0.00 77 1012.6
20260507022430 11 226 3.2 3.2 0.00 0.08 0.00 77 1012.8
20260507021429 11 255 3.2 3.2 0.00 0.08 0.00 77 1012.4
20260507020428 11 270 3.2 6.4 0.00 0.08 0.00 77 1012.6
20260507015505 11 285 6.4 14.5 0.00 0.08 0.00 78 1012.6
20260507014442 10 265 3.2 4.8 0.00 0.08 0.00 78 1012.6
20260507013439 11 259 3.2 6.4 0.00 0.08 0.00 78 1012.7
20260507012436 11 265 1.6 1.6 0.00 0.08 0.00 76 1012.1
20260507011435 11 254 6.4 11.3 0.00 0.08 0.00 75 1012.2
20260507010430 11 287 12.9 22.5 0.00 0.08 0.00 73 1012.1
20260507005428 11 299 4.8 9.7 0.00 0.08 0.00 74 1012.2
20260507004426 11 267 8.0 14.5 0.00 0.08 0.00 74 1012.2
20260507003429 11 267 1.6 3.2 0.00 0.08 0.00 76 1012.1
20260507002428 11 219 8.0 12.9 0.00 0.08 0.00 77 1012.1
20260507001429 11 235 1.6 4.8 0.00 0.08 0.00 78 1012.3
20260507000445 11 263 3.2 9.7 0.00 0.08 0.00 79 1012.1
20260506235502 11 279 4.8 9.7 0.00 0.08 0.00 80 1012.2
20260506234438 11 263 9.7 16.1 0.00 0.08 0.00 80 1012.5
20260506233457 11 267 6.4 9.7 0.00 0.08 0.00 80 1012.1
20260506232433 11 209 8.0 12.9 0.00 0.08 0.00 81 1012.1
20260506231430 11 271 8.0 12.9 0.00 0.08 0.00 82 1012.0
20260506230429 11 261 6.4 9.7 0.00 0.08 0.00 83 1012.0
20260506225429 11 252 3.2 4.8 0.00 0.08 0.00 84 1012.0
20260506224431 11 271 3.2 6.4 0.00 0.08 0.00 85 1011.8
20260506223507 11 271 3.2 6.4 0.00 0.08 0.00 86 1011.7
20260506222434 11 285 6.4 11.3 0.00 0.08 0.00 86 1011.8
20260506221443 10 274 6.4 11.3 0.00 0.08 0.00 88 1011.6
20260506220441 10 225 4.8 11.3 0.00 0.08 0.00 90 1011.7
20260506215458 10 269 8.0 11.3 0.03 0.08 0.08 91 1011.7
20260506214435 11 293 9.7 12.9 0.03 0.08 0.08 91 1011.4
20260506213433 11 251 4.8 6.4 0.05 0.08 0.08 94 1011.4
20260506212452 11 285 4.8 9.7 0.08 0.08 0.08 94 1011.2
20260506211429 11 272 8.0 11.3 0.08 0.08 0.08 94 1011.2
20260506210429 11 290 11.3 20.9 0.08 0.08 0.08 93 1010.9
20260506205430 11 282 12.9 16.1 0.05 0.05 0.05 93 1010.6
20260506204431 11 287 19.3 27.4 0.05 0.05 0.05 92 1010.7
20260506203429 12 302 19.3 30.6 0.03 0.03 0.03 90 1010.5
20260506202444 12 282 24.1 56.3 0.00 0.00 0.00 86 1010.1
20260506201441 13 283 19.3 25.7 0.00 0.00 0.00 84 1009.7
20260506200439 13 291 17.7 24.1 0.00 0.00 0.00 82 1009.6
20260506195435 13 282 24.1 40.2 0.00 0.00 0.00 80 1009.4
20260506194433 14 301 19.3 33.8 0.00 0.00 0.00 76 1008.8
20260506193430 14 290 9.7 17.7 0.00 0.00 0.00 74 1009.0
20260506192429 14 283 16.1 27.4 0.00 0.00 0.00 72 1008.6
20260506191429 15 283 8.0 14.5 0.00 0.00 0.00 69 1008.2
20260506190429 15 294 9.7 16.1 0.00 0.00 0.00 68 1008.3
20260506185427 15 288 19.3 24.1 0.00 0.00 0.00 68 1008.2
20260506184444 15 294 16.1 22.5 0.00 0.00 0.00 68 1007.8
20260506183444 15 291 16.1 20.9 0.00 0.00 0.00 67 1007.4